Orbital Elements at Epoch 2456511.5 (2013-Aug-07.0) TDB
Reference: JPL 46 (heliocentric ecliptic J2000)
Element | Value | Uncertainty (1-sigma) | Units |
e | .3904680292697189 | 7.6783e-07 | |
a | 3.588109024369652 | 2.9296e-07 | au |
q | 2.18706716481914 | 2.624e-06 | au |
i | 6.328157514340975 | 1.2426e-05 | deg |
node | 298.4488543790467 | 0.00011155 | deg |
peri | 58.9318935299756 | 0.0002621 | deg |
M | 45.17965005939447 | 7.2146e-05 | deg |
tp | 2456199.943199883975 (2012-Sep-29.44319988) | 0.00049789 | TDB |
period | 2482.543532194686 6.80 | 0.00030404 8.324e-07 | d yr |
n | .1450125628539303 | 1.776e-08 | deg/d |
Q | 4.989150883920163 | 4.0735e-07 | au |
|
Additional Model Parameters
Parameter | Value | Uncertainty (1-sigma) |
A1 [EST] | 4.382733919904309E-9 | 8.065E-10 |
A2 [EST] | 8.904419576286346E-10 | 1.369E-11 |
|
| | Orbit Determination Parameters
Additional Information
|